Weather History for KFST - January, 2012

Change the Weather History Date:

Thursday, January 12, 2012

  Actual Average Record
Temperature  
Mean Temperature 34 °F -  
Max Temperature 37 °F 59 °F 82 °F (2000)
Min Temperature 30 °F 36 °F 17 °F (1997)
Degree Days  
Heating Degree Days 32    
Moisture  
Dew Point 22 °F    
Average Humidity 63    
Maximum Humidity 78    
Minimum Humidity 47    
Precipitation  
Precipitation 0.00 in - - ()
Sea Level Pressure  
Sea Level Pressure 30.24 in    
Wind  
Wind Speed 8 mph (NE)    
Max Wind Speed 14 mph    
Max Gust Speed -    
Visibility 10 miles    
Events      
Averages and records for this station are not official NWS values.
T = Trace of Precipitation, MM = Missing Value Source: NWS Daily Summary

Daily Weather History Graph

Daily Weather History Graph

Search for Another Location

Airport or City:

Trip Planner

Search our weather history database for the weather conditions in past years. The results will help you decide how hot, cold, wet, or windy it might be!

Date:

Astronomy

Jan. 12, 2012 Rise Set
Actual Time 7:50 AM CST 6:09 PM CST
Civil Twilight 7:24 AM CST 6:35 PM CST
Nautical Twilight 6:54 AM CST 7:05 PM CST
Astronomical Twilight 6:25 AM CST 7:34 PM CST
Moon 9:57 PM CST (1/12) 9:52 AM CST (1/12)
Length of Visible Light 11h 11m
Length of Day
10h 18m
Waning Gibbous, 87% of the Moon is Illuminated
Jan 12
Waning Gibbous
Jan 16
Last Quarter
Jan 23
New
Jan 30
First Quarter
Feb 7
Full

Hourly Weather History & Observations

Time (CST) Temp. Windchill Dew Point Humidity Pressure Visibility Wind Dir Wind Speed Gust Speed Precip Events Conditions
12:53 AM 35.1 °F 27.9 °F 28.9 °F 78% 30.12 in 10.0 mi North 9.2 mph - N/A   Partly Cloudy
1:53 AM 33.1 °F 24.4 °F 27.0 °F 78% 30.14 in 10.0 mi North 11.5 mph - N/A   Overcast
2:53 AM 33.1 °F 23.4 °F 25.0 °F 72% 30.16 in 10.0 mi NNE 13.8 mph - N/A   Mostly Cloudy
4:53 AM 30.9 °F 22.8 °F 23.0 °F 72% 30.20 in 10.0 mi NNE 9.2 mph - N/A   Mostly Cloudy
5:53 AM 32.0 °F 23.6 °F 23.0 °F 69% 30.24 in 10.0 mi NNE 10.4 mph - N/A   Overcast
6:09 AM 32.0 °F 24.2 °F 24.8 °F 75% 30.30 in 10.0 mi NNE 9.2 mph - N/A   Overcast
6:35 AM 30.2 °F 21.9 °F 23.0 °F 75% 30.31 in 10.0 mi NNE 9.2 mph - N/A   Overcast
6:53 AM 30.9 °F 24.3 °F 21.9 °F 69% 30.28 in 10.0 mi NE 6.9 mph - N/A   Overcast
7:53 AM 30.9 °F 25.2 °F 21.0 °F 67% 30.30 in 10.0 mi NE 5.8 mph - N/A   Overcast
8:53 AM 30.9 °F 24.3 °F 19.9 °F 64% 30.32 in 10.0 mi NNE 6.9 mph - N/A   Overcast
9:53 AM 32.0 °F 23.6 °F 19.9 °F 61% 30.34 in 10.0 mi NNE 10.4 mph - N/A   Clear
10:53 AM 33.1 °F 28.7 °F 19.0 °F 56% 30.37 in 10.0 mi NNE 4.6 mph - N/A   Clear
11:53 AM 34.0 °F 28.8 °F 19.9 °F 56% 30.33 in 10.0 mi Variable 5.8 mph - N/A   Clear
12:53 PM 34.0 °F 29.8 °F 19.0 °F 54% 30.28 in 10.0 mi ENE 4.6 mph - N/A   Clear
1:53 PM 35.1 °F - 19.0 °F 52% 30.26 in 10.0 mi Calm Calm - N/A   Clear
2:53 PM 36.0 °F 33.3 °F 18.0 °F 48% 30.25 in 10.0 mi NE 3.5 mph - N/A   Clear
3:53 PM 37.0 °F - 19.0 °F 48% 30.23 in 10.0 mi Calm Calm - N/A   Clear
4:53 PM 37.9 °F - 19.0 °F 47% 30.22 in 10.0 mi Calm Calm - N/A   Clear
5:53 PM 37.0 °F 34.5 °F 19.9 °F 50% 30.21 in 10.0 mi ESE 3.5 mph - N/A   Clear
6:53 PM 34.0 °F 29.8 °F 24.1 °F 67% 30.22 in 10.0 mi NE 4.6 mph - N/A   Clear
7:53 PM 34.0 °F 28.8 °F 23.0 °F 64% 30.20 in 10.0 mi East 5.8 mph - N/A   Clear
8:53 PM 34.0 °F 28.8 °F 21.9 °F 61% 30.21 in 10.0 mi ESE 5.8 mph - N/A   Clear
9:53 PM 34.0 °F 28.0 °F 21.0 °F 59% 30.20 in 10.0 mi ESE 6.9 mph - N/A   Clear
10:53 PM 35.1 °F 32.2 °F 21.0 °F 57% 30.20 in 10.0 mi ESE 3.5 mph - N/A   Clear
11:53 PM 33.1 °F 28.7 °F 25.0 °F 72% 30.21 in 10.0 mi East 4.6 mph - N/A   Clear